INTELSAT 25 (IS-25)

Last updated on Sun Apr 12 2026 00:02:51 GMT+0000 (Coordinated Universal Time)

1 33153U 08034A 26101.33689674 -.00000220 00000+0 00000+0 0 9999 2 33153 2.5341 81.1002 0002651 260.3463 307.8985 1.00272943 65023
UTC large
Height (km)
Speed (km/s)
/
Latitude / Longitude
Inclination (degrees)
Orbital Period (minutes)
Azimuth
Elevation
Range (km)
Doppler Factor

Next 0 passes for location: London (51.5072 / 0.1276)

Sorry there are no passes over London.
INTELSAT 25 (IS-25)